Weather History for EGLL - June, 2013

Change the Weather History Date:

Friday, June 7, 2013

  Actual Average Record
Temperature  
Mean Temperature 59 °F -  
Max Temperature 69 °F 68 °F 80 °F (2004)
Min Temperature 49 °F 53 °F 42 °F (2005)
Degree Days  
Heating Degree Days 6    
Growing Degree Days 9 (Base 50)    
Moisture  
Dew Point 47 °F    
Average Humidity 65    
Maximum Humidity 87    
Minimum Humidity 34    
Precipitation  
Precipitation 0.02 in - - ()
Sea Level Pressure  
Sea Level Pressure 30.21 in    
Wind  
Wind Speed 8 mph ()    
Max Wind Speed 15 mph    
Max Gust Speed -    
Visibility 10.0 miles    
Events Rain    
Averages and records for this station are not official NWS values.
T = Trace of Precipitation, MM = Missing Value Source: Averaged Metar Reports

Daily Weather History Graph

Daily Weather History Graph

Search for Another Location

Airport or City:

Trip Planner

Search our weather history database for the weather conditions in past years. The results will help you decide how hot, cold, wet, or windy it might be!

Date:

Astronomy

Jun. 07, 2013 Rise Set
Actual Time 4:46 AM BST 9:15 PM BST
Civil Twilight 4:00 AM BST 10:02 PM BST
Nautical Twilight 2:49 AM BST 11:12 PM BST
Astronomical Twilight 1:33 AM BST 12:28 AM BST
Moon 4:09 AM BST (6/7) 8:08 PM BST (6/7)
Length of Visible Light 18h 01m
Length of Day
16h 28m
Waning Crescent, 1% of the Moon is Illuminated
Jun 7
Waning Crescent
Jun 8
New
Jun 16
First Quarter
Jun 23
Full
Jun 30
Last Quarter

Hourly Weather History & Observations

Time (BST) Temp. Dew Point Humidity Pressure Visibility Wind Dir Wind Speed Gust Speed Precip Events Conditions
12:20 AM 55.4 °F 46.4 °F 72% 30.21 in - ENE 8.1 mph - N/A   Clear
12:50 AM 54 °F 45 °F 63% 30.22 in 16 mi NE 9.2 mph - -  
12:50 AM 53.6 °F 46.4 °F 77% 30.21 in - NE 5.8 mph - N/A   Clear
1:20 AM 53.6 °F 46.4 °F 77% 30.21 in 6.2 mi ENE 9.2 mph - N/A   Unknown
1:50 AM 51.8 °F 44.6 °F 76% 30.21 in 6.2 mi NE 8.1 mph - N/A   Unknown
2:20 AM 51.8 °F 44.6 °F 76% 30.21 in 6.2 mi ENE 6.9 mph - N/A   Unknown
2:50 AM 51.8 °F 42.8 °F 71% 30.21 in - ENE 8.1 mph - N/A   Clear
3:20 AM 50.0 °F 44.6 °F 82% 30.21 in - NE 6.9 mph - N/A   Clear
3:50 AM 51 °F 42 °F 64% 30.21 in 17 mi NNE 6.9 mph - -   Mostly Cloudy
3:50 AM 50.0 °F 44.6 °F 82% 30.21 in - NE 6.9 mph - N/A   Clear
4:20 AM 50.0 °F 44.6 °F 82% 30.21 in - NNE 6.9 mph - N/A   Clear
4:50 AM 50.0 °F 44.6 °F 82% 30.18 in 6.2 mi NE 10.4 mph - N/A Rain Light Rain Showers
5:20 AM 50.0 °F 44.6 °F 82% 30.18 in 6.2 mi ENE 10.4 mph - N/A Rain Light Rain Showers
5:50 AM 50.0 °F 46.4 °F 87% 30.21 in - NE 9.2 mph - N/A   Clear
6:20 AM 50.0 °F 46.4 °F 87% 30.21 in - NE 6.9 mph - N/A   Clear
6:50 AM 51 °F 44 °F 71% 30.22 in 16 mi NE 9.2 mph - - Rain Rain
6:50 AM 50.0 °F 46.4 °F 87% 30.21 in - NE 8.1 mph - N/A   Clear
7:20 AM 51.8 °F 46.4 °F 82% 30.21 in - NE 8.1 mph - N/A   Clear
7:50 AM 51.8 °F 46.4 °F 82% 30.21 in 6.2 mi ENE 8.1 mph - N/A Rain Light Rain
8:20 AM 53.6 °F 46.4 °F 77% 30.21 in 6.2 mi ENE 8.1 mph - N/A Rain Light Rain
8:50 AM 53.6 °F 46.4 °F 77% 30.21 in - ENE 9.2 mph - N/A   Clear
9:20 AM 55.4 °F 46.4 °F 72% 30.21 in - NE 9.2 mph - N/A   Clear
9:50 AM 58 °F 45 °F 51% 30.22 in 19 mi NE 9.2 mph - -   Scattered Clouds
9:50 AM 57.2 °F 46.4 °F 67% 30.21 in - ENE 9.2 mph - N/A   Clear
10:20 AM 60.8 °F 46.4 °F 59% 30.21 in - ENE 10.4 mph - N/A   Clear
10:50 AM 62.6 °F 48.2 °F 59% 30.21 in - ENE 13.8 mph - N/A   Clear
11:20 AM 64.4 °F 48.2 °F 56% 30.21 in - East 10.4 mph - N/A   Clear
11:50 AM 64.4 °F 48.2 °F 56% 30.24 in - NE 9.2 mph - N/A   Clear
12:20 PM 66.2 °F 48.2 °F 52% 30.24 in - East 9.2 mph - N/A   Clear
12:50 PM 68 °F 46 °F 34% 30.24 in 19 mi ENE 9.2 mph - -   Mostly Cloudy
12:50 PM 66.2 °F 48.2 °F 52% 30.24 in - East 10.4 mph - N/A   Clear
1:20 PM 68.0 °F 48.2 °F 49% 30.24 in 6.2 mi ENE 8.1 mph - N/A   Partly Cloudy
1:50 PM 66.2 °F 50.0 °F 56% 30.21 in 6.2 mi East 9.2 mph - N/A Rain Light Rain
2:20 PM 64.4 °F 51.8 °F 64% 30.21 in 6.2 mi ENE 5.8 mph - N/A Rain Light Rain
2:50 PM 64.4 °F 51.8 °F 64% 30.21 in 6.2 mi ENE 10.4 mph - N/A Rain Light Rain
3:20 PM 64.4 °F 51.8 °F 64% 30.21 in 6.2 mi ENE 9.2 mph - N/A Rain Light Rain
3:50 PM 65 °F 52 °F 52% 30.19 in 13 mi NE 12.7 mph - - Rain Light Rain
3:50 PM 64.4 °F 53.6 °F 68% 30.18 in 6.2 mi ENE 11.5 mph - N/A Rain Light Rain
4:20 PM 66.2 °F 53.6 °F 64% 30.18 in - ENE 9.2 mph - N/A   Clear
4:50 PM 68.0 °F 51.8 °F 56% 30.18 in - ENE 11.5 mph - N/A   Clear
5:20 PM 68.0 °F 50.0 °F 52% 30.18 in - ENE 13.8 mph - N/A   Clear
5:50 PM 68.0 °F 50.0 °F 52% 30.18 in - NE 11.5 mph - N/A   Clear
6:20 PM 68.0 °F 50.0 °F 52% 30.18 in - ENE 15.0 mph - N/A   Clear
6:50 PM 67 °F 48 °F 39% 30.19 in 22 mi NE 12.7 mph - -   Partly Cloudy
6:50 PM 68.0 °F 50.0 °F 52% 30.18 in - ENE 11.5 mph - N/A   Clear
7:20 PM 66.2 °F 48.2 °F 52% 30.18 in - NE 11.5 mph - N/A   Clear
7:50 PM 64.4 °F 48.2 °F 56% 30.18 in - ENE 10.4 mph - N/A   Clear
8:20 PM 64.4 °F 48.2 °F 56% 30.18 in - ENE 11.5 mph - N/A   Clear
8:50 PM 62.6 °F 48.2 °F 59% 30.18 in - ENE 11.5 mph - N/A   Clear
9:20 PM 60.8 °F 46.4 °F 59% 30.21 in - ENE 11.5 mph - N/A   Clear
9:50 PM 60 °F 46 °F 49% 30.23 in 19 mi ENE 10.4 mph - -  
9:50 PM 60.8 °F 46.4 °F 59% 30.21 in - ENE 11.5 mph - N/A   Clear
10:20 PM 59.0 °F 46.4 °F 63% 30.24 in - ENE 8.1 mph - N/A   Clear
10:50 PM 57.2 °F 46.4 °F 67% 30.24 in - ENE 10.4 mph - N/A   Clear
11:20 PM 55.4 °F 46.4 °F 72% 30.24 in - ENE 9.2 mph - N/A   Clear
11:50 PM 55.4 °F 46.4 °F 72% 30.24 in - ENE 11.5 mph - N/A   Clear